Regional Weather Roundup
Issued by NWS

Home | Current Version | Previous Version | Text Only | Print | Product List | Glossary On
Versions: 1 2 3 4 5 6 7 8 9 10 11 12 13 14 15 16 17 18 19 20 21 22 23 24 25 26 27 28 29 30 31 32 33 34 35 36 37 38 39 40 41 42 43 44 45 46 47 48 49 50
000
ASUS43 KIND 170609
RWRIN

WEATHER ROUNDUP FOR INDIANA
NATIONAL WEATHER SERVICE INDIANAPOLIS IN
100 AM EST TUE JAN 17 2017

NOTE: "FAIR" INDICATES FEW OR NO CLOUDS BELOW 12,000 FEET WITH NO
SIGNIFICANT WEATHER AND/OR OBSTRUCTIONS TO VISIBILITY.

* - STATION DOES NOT REPORT WEATHER SUCH AS PRECIPITATION OR FOG.

+ - STATION NOT QUALITY CONTROLLED BY THE NATIONAL WEATHER SERVICE.
    USE DATA WITH CAUTION...ESPECIALLY DEWPOINT AND RELATIVE
    HUMIDITY OBSERVATIONS.

INZ001>003-010>013-019-020-170700-
NORTHWEST INDIANA

CITY           SKY/WX    TMP DP  RH WIND       PRES   REMARKS
GARY /AIRPORT/ LGT RAIN  45  45  99 SE8       29.83F
KNOX *+        CLOUDY    45  39  81 CALM      29.87F VSB 1
LA PORTE +     FOG       38  38 100 SE7       29.88F VSB 1/2
6HR MIN TEMP:  35; 6HR MAX TEMP:  38; 6HR PCP:  0.20;

MICHIGAN CITY+ CLOUDY    41  41 100 SE3       29.86F
MONTICELLO +   RAIN      49  48  95 S8        29.86F
6HR MIN TEMP:  39; 6HR MAX TEMP:  49; 6HR PCP:  0.31;

RENSSELAER +   LGT RAIN  46  46 100 SE10      29.84F
VALPARAISO     FOG       40  40 100 E9        29.86F VSB 1/4
6HR MIN TEMP:  37; 6HR MAX TEMP:  40; 6HR PCP:  0.27;


$$

LMZ046-743>745-170700-
SOUTHERN LAKE MICHIGAN

STATION/POSITION TIME  TEMP    WIND        PRES    WAVE
                       AIR SEA DIR/SP/G            HT
                 (UTC) (F)     (DEG/KT/KT) (MB)    (FT)
BURNS HARBOR     0540   46     140/ 13/ 20 1011.2F
MICHIGAN CITY    0500   42     120/ 12/ 14   N/A

$$

INZ004-005-014>016-021>024-170700-
NORTH CENTRAL INDIANA

CITY           SKY/WX    TMP DP  RH WIND       PRES   REMARKS
GOSHEN         LGT RAIN  41  38  89 SE9       29.91F FOG
6HR MIN TEMP:  35; 6HR MAX TEMP:  41; 6HR PCP:  0.20;

LOGANSPORT +   LGT RAIN  45  45 100 SE10      29.90F
PERU/GRISSOM   LGT RAIN  48  48 100 S9        29.88S
6HR MIN TEMP:  40; 6HR MAX TEMP:  49; 6HR PCP:  0.56;

ROCHESTER +    DRIZZLE   48  48 100 SE9       29.88F
SOUTH BEND     CLOUDY    37  37 100 E12       29.90F FOG
6HR MIN TEMP:  35; 6HR MAX TEMP:  37; 6HR PCP:  0.26;

WARSAW +       LGT RAIN  43  41  93 SE8       29.91F

$$

INZ006>009-017-018-025>027-170700-
NORTHEAST INDIANA

CITY           SKY/WX    TMP DP  RH WIND       PRES   REMARKS
ANGOLA *+      CLOUDY    36  36 100 E7        29.95F
AUBURN +       RAIN      37  36  93 E7        29.96F
FORT WAYNE     RAIN      43  42  97 SE6       29.95F VSB 1/4
6HR MIN TEMP:  36; 6HR MAX TEMP:  43; 6HR PCP:  0.45;

HUNTINGTON +   LGT RAIN  46  45  96 SE8       29.90F
6HR MIN TEMP:  36; 6HR MAX TEMP:  46; 6HR PCP:  0.30;

KENDALLVILLE + LGT RAIN  36  36 100 SE7       29.95F

$$

INZ028-029-035-036-043>045-051>053-170700-
WEST CENTRAL INDIANA

CITY           SKY/WX    TMP DP  RH WIND       PRES   REMARKS
CRAWFORDSVL +  CLOUDY    51  51 100 SE14      29.88F
6HR MIN TEMP:  46; 6HR MAX TEMP:  51; 6HR PCP:  0.44;

GREENCASTLE +  CLOUDY    52  52 100 SE6       29.90F FOG
LAFAYETTE      CLOUDY    52  52 100 S9        29.86F
6HR MIN TEMP:  44; 6HR MAX TEMP:  52; 6HR PCP:  0.84;

TERRE HAUTE    CLOUDY    56  54  93 S10       29.89F
6HR MIN TEMP:  51; 6HR MAX TEMP:  56; 6HR PCP:  0.68;


$$

INZ030>032-037>040-046>048-054>057-064-065-170700-
CENTRAL INDIANA

CITY           SKY/WX    TMP DP  RH WIND       PRES   REMARKS
CP ATTERBURY + RAIN      54  52  94 S9        29.94F
FRANKFORT +    CLOUDY    54  53  95 S8        29.91F
6HR MIN TEMP:  47; 6HR MAX TEMP:  54; 6HR PCP:  0.32;

GREENWOOD *+   CLOUDY    55  55 100 S13       29.94F
6HR MIN TEMP:  49; 6HR MAX TEMP:  55;

INDIANAPOLIS   LGT RAIN  52  51  97 SE9       29.92F FOG
6HR MIN TEMP:  48; 6HR MAX TEMP:  52; 6HR PCP:  0.60;

-EAGLE CREEK   RAIN      52  50  93 SE6       29.92F FOG
6HR MIN TEMP:  48; 6HR MAX TEMP:  52; 6HR PCP:  0.46;

KOKOMO +       LGT RAIN  49  49 100 S14       29.91F
6HR MIN TEMP:  42; 6HR MAX TEMP:  49; 6HR PCP:  0.46;

MARION +       CLOUDY    50  50 100 S16       29.92F FOG
MT COMFORT *+  CLOUDY    50  50 100 S12       29.92F
SHELBYVILLE    LGT RAIN  54  51  90 NW8       29.93F
6HR MIN TEMP:  50; 6HR MAX TEMP:  55; 6HR PCP:  0.48;

ZIONSVILLE +   LGT RAIN  51  50  98 S14       29.92F
6HR MIN TEMP:  46; 6HR MAX TEMP:  51; 6HR PCP:  0.40;


$$

INZ033-034-041-042-049-050-058-059-170700-
EAST CENTRAL INDIANA

CITY           SKY/WX    TMP DP  RH WIND       PRES   REMARKS
MUNCIE         LGT RAIN  54  51  90 S10       29.94F FOG
6HR MIN TEMP:  49; 6HR MAX TEMP:  54; 6HR PCP:  0.46;


$$

INZ060-061-067>069-081>083-085>088-170700-
SOUTHWEST INDIANA

CITY           SKY/WX    TMP DP  RH WIND       PRES   REMARKS
EVANSVILLE     HVY RAIN  59  56  89 S8        29.95F FOG
6HR MIN TEMP:  55; 6HR MAX TEMP:  59; 6HR PCP:  0.16;

HUNTINGBURG *+ RAIN      58  56  93 S13       29.95F
6HR MIN TEMP:  55; 6HR MAX TEMP:  60; 6HR PCP:  0.20;

WASHINGTON +   CLOUDY    58  56  90 S17G23    29.90F
6HR MIN TEMP:  53; 6HR MAX TEMP:  59; 6HR PCP:  0.25;


$$

INZ062-063-066-070>080-084-089>092-170700-
SOUTH CENTRAL AND SOUTHEAST INDIANA

CITY           SKY/WX    TMP DP  RH WIND       PRES   REMARKS
BLOOMINGTON    CLOUDY    55  52  89 S7        29.92F
6HR MIN TEMP:  50; 6HR MAX TEMP:  55; 6HR PCP:  0.39;

MADISON *+     CLOUDY    55  54  94 S13G18    30.00F
NORTH VERNON + LGT RAIN N/A N/A N/A S12G17    29.97F
SEYMOUR +      LGT RAIN  57  55  94 S14       29.95F

$$





USA.gov is the U.S. government's official web portal to all federal, state and local government web resources and services.